Temperature
6 7 8 8 9 9 10 10 10 10 11 12 13 13 13 14 15 15 16 17 17 18 18 17 17 17 16 16 15 15 14 14 13 13 12 11 11 11 11 10 10 10 9 9
6 7 8 8 9 9 10 11 11 10 11 12 12 13 13 14 15 15 16 17 17 18 18 17 17 17 16 16 15 14 14 13 13 12 12 11 11 10 10 10 10 9 9 9
5 6 7 8 9 10 10 10 11 11 12 11 11 11 12 14 15 16 17 18 18 18 18 18 17 17 16 16 15 14 14 13 13 12 11 11 10 10 10 9 9 9 9 8
4 5 6 8 9 10 10 10 11 11 11 11 12 13 15 16 16 17 18 18 18 18 18 17 17 17 16 15 15 14 13 13 12 11 11 10 10 10 9 9 9 8 8 8
4 5 6 7 8 9 9 10 11 11 11 11 12 12 13 16 16 17 17 18 18 18 17 17 17 16 16 15 15 14 13 13 12 11 11 10 10 9 9 8 8 8 8 8
4 5 6 8 8 9 10 9 10 11 11 10 10 10 13 15 16 16 17 17 17 17 17 17 16 16 15 15 14 14 13 12 12 11 10 10 9 9 8 8 8 8 7 7
4 4 6 8 8 9 9 10 10 10 11 10 10 13 14 15 15 16 16 16 16 16 16 16 16 15 15 15 14 13 13 12 11 11 10 9 9 8 8 8 7 7 7 6
4 4 6 7 7 9 9 10 11 11 11 11 12 13 13 14 15 15 15 16 16 16 16 15 15 15 15 14 14 13 12 11 11 10 10 9 8 8 8 7 7 6 6 5
5 6 7 7 8 9 10 10 11 11 12 12 11 11 12 13 14 15 15 15 15 15 15 15 14 14 14 14 13 12 12 11 10 9 9 8 8 8 7 7 6 6 5 5
4 5 6 7 8 9 9 10 11 11 12 12 11 12 12 13 13 14 14 14 14 14 14 14 14 14 13 13 12 12 11 10 9 9 8 8 7 7 6 6 5 5 5 4
4 5 5 7 8 9 9 9 10 10 11 12 12 11 12 12 13 13 13 13 14 14 14 13 13 13 12 12 11 11 10 10 9 8 8 7 7 6 6 5 5 4 4 4
4 5 5 6 8 8 9 9 9 10 10 11 11 12 12 12 12 12 12 13 13 13 13 13 12 12 12 11 11 10 10 9 8 8 7 6 6 5 5 4 4 3 3 3
5 6 6 7 7 8 8 9 9 10 10 11 11 11 12 12 11 11 12 12 12 12 12 12 11 11 11 10 10 10 9 8 8 7 6 6 5 5 4 4 3 3 2 2
5 5 5 6 7 8 8 9 9 9 10 10 10 11 11 11 10 10 11 11 11 11 11 11 10 10 10 9 9 8 8 7 7 6 6 5 5 4 4 3 3 2 2 1
4 5 5 6 6 7 8 8 8 8 9 9 10 10 10 10 10 9 10 10 10 10 10 10 9 9 9 8 8 7 7 6 6 5 5 4 4 3 3 2 2 2 1 1
4 4 5 5 6 6 7 7 8 8 8 9 9 9 9 9 9 9 9 9 9 9 9 9 9 8 8 7 7 6 6 5 5 5 4 4 3 3 2 2 1 1 0 -0
3 3 4 4 5 6 7 7 8 8 8 8 8 8 8 8 8 8 8 8 8 8 8 8 7 7 7 6 6 6 5 5 4 4 3 3 2 2 1 1 0 -0 -0 -1
3 4 4 5 5 6 6 7 7 8 8 8 8 8 8 8 8 7 7 7 7 7 6 6 6 6 6 5 5 5 4 4 3 3 2 2 1 1 0 -0 -0 -1 -1 -2
3 4 4 5 5 6 6 7 7 7 7 8 8 8 7 7 7 7 6 6 6 6 5 5 5 5 5 4 4 4 3 3 3 2 1 1 0 -0 -0 -1 -1 -2 -2 -2
3 3 4 5 5 5 6 6 6 6 7 7 7 7 6 6 6 6 6 5 5 5 5 5 4 4 4 3 3 3 2 2 2 1 1 0 -0 -1 -1 -2 -2 -2 -3 -3
2 3 3 4 4 5 5 6 6 6 6 6 6 6 6 5 5 5 5 4 4 4 4 3 3 3 3 3 2 2 2 1 1 0 -0 -1 -1 -1 -2 -2 -3 -3 -3 -4
2 2 3 3 4 4 4 4 5 5 5 4 5 5 5 4 4 3 4 4 3 3 3 2 2 2 2 2 1 1 1 0 -0 -1 -1 -1 -2 -2 -3 -3 -4 -4 -4 -4
1 1 2 2 3 3 3 3 3 3 3 3 3 4 4 3 3 3 2 2 2 2 2 1 1 1 1 1 0 -0 -0 -1 -1 -2 -2 -2 -3 -3 -3 -4 -4 -4 -5 -5
-0 -0 0 1 1 1 1 0 1 1 1 1 1 2 2 2 1 1 2 1 1 1 1 0 -0 -0 -0 -1 -1 -1 -1 -2 -2 -2 -3 -3 -3 -4 -4 -4 -5 -5 -5 -5
-2 -1 -1 -1 -1 -1 -1 -1 -1 -1 -0 -0 -1 -1 -0 1 1 0 0 -0 -0 -1 -1 -1 -1 -1 -2 -2 -2 -2 -2 -3 -3 -3 -4 -4 -4 -4 -5 -5 -5 -5 -6 -6
-4 -3 -3 -3 -3 -3 -3 -2 -2 -2 -2 -2 -2 -2 -2 -1 -1 -1 -1 -2 -2 -2 -2 -2 -2 -3 -3 -3 -3 -3 -3 -4 -4 -4 -5 -5 -5 -5 -5 -6 -6 -6 -6 -6
-5 -5 -5 -5 -5 -4 -4 -4 -4 -4 -3 -3 -3 -3 -3 -3 -3 -3 -3 -3 -3 -3 -3 -3 -3 -3 -4 -4 -4 -4 -4 -5 -5 -5 -5 -5 -6 -6 -6 -6 -6 -7 -7 -7
Wind_Speed
8 7 7 10 15 15 18 17 15 16 16 13 10 8 7 5 4 5 5 6 8 8 7 6 6 6 7 7 7 8 9 10 10 9 9 9 9 9 9 9 9 9 8 7
7 7 8 10 16 20 21 20 18 14 18 12 9 6 5 7 7 7 8 9 9 8 8 8 9 8 8 8 8 8 9 9 8 8 8 9 8 8 8 8 7 8 8 8
5 5 4 13 18 20 18 19 21 23 21 6 9 12 13 11 10 11 11 10 10 10 10 10 10 9 10 9 8 9 9 8 8 9 9 8 8 8 8 8 7 7 7 7
3 2 9 9 8 13 18 19 18 17 11 11 12 13 12 11 12 12 11 10 10 9 9 8 7 7 8 8 9 9 9 8 8 9 9 8 8 8 7 6 7 6 6 6
4 5 8 9 6 11 15 19 18 18 14 9 5 4 9 10 11 13 13 11 10 9 8 7 8 9 10 9 9 9 9 9 9 9 9 9 8 8 6 6 6 5 5 5
5 5 9 8 4 4 8 15 13 15 15 10 8 9 16 10 11 12 10 8 7 7 6 8 8 10 11 10 10 10 10 9 9 9 9 9 8 7 5 6 5 5 4 4
8 7 9 8 4 6 10 10 6 11 13 12 16 19 12 7 10 10 9 8 7 8 8 8 10 11 11 10 10 9 8 8 8 8 8 8 7 6 6 6 6 5 4 3
9 8 11 4 4 8 6 5 5 7 10 11 15 14 8 8 9 9 8 7 8 8 7 7 10 12 11 10 8 9 9 9 8 7 7 7 8 7 6 7 6 5 4 2
9 10 6 3 5 6 4 5 5 5 7 8 9 9 8 8 8 8 8 8 7 9 9 7 8 11 12 9 10 11 10 9 8 8 7 7 8 8 6 5 5 4 4 3
7 9 10 10 9 8 6 6 8 7 6 6 7 7 7 7 7 7 8 8 8 10 10 8 7 8 9 11 11 12 11 9 8 8 7 6 6 6 6 5 5 4 4 3
10 10 10 11 10 9 9 8 8 7 6 6 6 6 6 6 7 8 7 7 9 11 11 10 9 9 9 11 12 12 11 9 8 7 8 6 5 4 5 4 5 5 4 4
10 8 7 11 12 10 10 10 9 7 7 6 5 6 5 5 6 7 8 8 9 9 10 10 10 10 9 10 12 13 11 9 7 7 6 6 6 5 5 4 5 5 4 4
14 12 12 14 13 12 12 11 9 7 7 6 4 4 5 4 5 7 8 10 10 10 10 11 11 10 9 9 11 11 11 9 7 7 7 6 6 6 4 4 5 5 4 3
12 11 13 13 13 12 10 8 5 4 4 3 2 3 5 6 6 8 9 9 9 10 10 10 11 9 8 9 11 11 10 10 9 7 6 6 5 5 5 4 3 1 1 2
13 12 14 13 11 9 6 3 3 4 2 1 1 5 7 9 8 7 8 10 11 11 10 10 11 9 8 9 11 11 9 7 7 7 6 6 5 5 4 4 3 1 1 1
10 9 10 10 11 8 6 5 5 5 3 2 3 5 6 8 8 8 8 10 12 12 10 10 10 8 8 10 11 9 8 11 9 7 6 6 5 5 4 3 3 2 1 1
9 10 9 9 10 9 8 7 7 6 5 5 5 7 9 10 10 9 7 7 8 9 9 10 10 9 9 10 10 8 7 8 10 7 5 5 4 4 4 3 3 2 2 2
13 13 11 10 9 8 7 5 5 5 6 6 8 9 10 12 11 10 9 10 11 10 8 8 9 9 9 9 9 8 7 6 6 6 5 4 4 3 3 3 3 2 1 2
11 11 10 9 8 7 5 4 4 4 6 8 10 9 9 9 11 11 10 11 12 10 6 8 13 10 9 9 10 7 7 7 6 5 4 5 4 3 3 2 2 2 2 2
9 8 7 6 4 4 4 3 4 5 6 8 10 11 10 10 11 11 10 8 5 6 9 10 10 9 8 8 9 6 7 7 6 5 4 3 3 3 2 2 2 2 2 3
5 5 4 3 2 2 4 5 7 7 7 9 11 12 12 11 10 10 11 8 5 8 9 12 8 7 7 8 8 6 6 6 5 4 4 3 3 2 2 2 2 3 3 3
2 2 3 4 5 5 4 5 7 9 10 10 11 12 13 12 10 9 7 7 8 11 8 7 6 8 9 9 6 6 5 5 4 3 3 3 3 2 2 3 3 3 3 4
2 4 5 6 8 8 8 8 8 9 10 11 12 12 12 10 8 9 8 6 7 11 8 6 9 12 11 7 6 5 5 4 3 3 3 2 2 3 3 3 3 3 4 4
6 7 8 8 10 11 11 9 9 10 11 11 10 9 10 10 8 6 8 12 12 12 8 10 12 11 10 6 5 4 4 3 2 2 2 2 2 2 3 3 4 4 4 5
8 8 9 10 10 9 10 11 12 13 13 11 12 11 8 7 8 9 9 9 12 12 8 9 11 10 7 5 4 4 3 2 2 2 2 2 2 2 3 3 4 5 5 5
8 8 8 8 8 8 7 8 9 9 10 11 10 9 9 9 10 9 9 9 11 11 8 6 6 6 4 4 4 3 2 1 1 0 1 1 2 3 3 4 5 5 5 6
9 8 8 9 8 8 7 8 9 9 9 10 10 9 9 9 9 9 9 8 7 7 6 5 5 4 3 3 2 2 1 1 0 1 1 2 2 3 4 5 5 5 5 6
Wind_Direction
266 259 210 225 218 212 214 213 214 225 226 228 231 228 228 218 200 197 210 209 206 205 205 199 194 188 184 182 175 170 172 180 186 180 176 176 176 175 174 175 178 179 179 180
269 254 239 241 225 217 221 220 225 231 238 228 226 222 225 216 205 212 219 219 216 209 204 202 198 191 184 181 176 169 174 180 174 168 169 171 171 167 166 169 170 168 175 177
264 285 270 239 219 212 218 221 218 227 234 198 208 216 220 217 212 218 223 217 212 210 207 205 197 187 184 177 165 167 173 171 167 167 169 170 164 162 167 169 165 167 174 175
247 249 228 239 213 212 224 229 221 229 229 202 215 223 222 209 207 218 222 218 217 210 206 199 184 174 164 156 161 167 169 168 166 164 165 161 159 164 166 163 165 170 174 177
206 234 263 278 233 200 211 233 225 230 235 222 210 231 246 223 210 216 217 214 213 204 195 180 173 164 152 154 157 163 171 172 169 164 161 159 163 166 162 158 161 166 167 169
205 219 235 246 237 213 196 244 233 224 231 217 169 225 245 219 210 219 217 208 198 181 167 169 167 153 151 157 161 173 176 170 162 159 159 162 164 158 152 153 155 150 149 164
213 229 254 258 247 148 188 240 241 216 225 213 207 228 242 202 205 208 207 201 182 167 169 172 159 151 153 158 174 173 155 147 148 151 153 152 146 144 142 138 134 137 141 146
204 222 243 240 161 183 230 273 253 220 220 221 230 238 232 207 202 195 192 184 168 161 162 155 154 152 154 166 161 143 138 138 141 142 140 137 135 134 135 138 138 140 139 133
210 227 261 233 229 249 263 270 268 251 251 231 234 236 228 215 200 191 182 173 162 155 148 148 156 157 158 159 144 137 134 136 135 130 129 135 139 140 138 140 144 149 151 162
250 255 269 273 275 283 286 278 279 270 258 233 234 235 227 211 197 185 175 167 156 148 147 153 155 152 149 143 140 136 136 136 135 133 129 125 129 139 145 153 153 155 163 172
252 265 276 270 263 271 285 293 296 290 271 241 228 239 218 205 193 180 169 158 154 155 154 154 146 140 140 141 138 134 134 134 133 132 134 128 120 129 143 160 168 168 178 174
247 246 251 269 272 274 275 276 276 280 286 276 231 221 205 192 181 166 157 149 145 144 144 144 141 139 140 141 140 137 136 137 137 135 132 131 125 100 85 109 123 131 146 155
251 261 261 269 272 269 266 269 270 262 259 269 259 201 172 160 154 148 146 148 149 147 142 139 137 137 140 140 139 138 140 140 137 137 137 137 137 135 122 85 89 100 113 122
252 258 265 266 268 270 269 271 273 274 271 260 233 161 142 135 137 146 149 146 137 131 131 132 130 132 136 135 131 130 131 135 137 139 139 140 140 139 140 140 130 81 81 105
254 250 255 267 271 272 268 259 261 269 273 293 153 147 146 144 147 146 134 128 125 124 128 129 127 127 129 129 128 129 129 133 132 132 132 133 133 132 134 138 143 144 83 44
266 264 256 257 258 256 251 242 235 240 230 201 163 145 138 130 126 124 128 135 136 138 138 132 130 132 129 126 123 121 125 131 131 131 130 131 134 138 142 146 153 165 188 214
258 258 257 259 256 251 246 239 225 218 205 184 167 140 127 123 120 121 120 114 118 122 128 130 130 128 125 125 124 125 125 130 128 125 130 137 142 148 153 159 172 189 216 234
249 250 248 247 247 247 250 241 222 202 191 174 150 140 141 142 142 139 131 119 110 101 101 116 122 120 118 119 120 124 126 128 129 131 133 138 143 150 155 163 178 195 229 258
251 251 251 247 242 238 234 222 205 183 165 155 152 149 145 139 136 135 132 128 126 123 122 125 125 118 118 122 121 121 124 124 123 126 131 141 136 142 154 169 188 205 218 238
250 246 241 239 230 218 200 176 163 159 157 147 140 132 127 128 130 129 121 107 106 126 132 126 121 119 119 124 120 121 126 129 132 134 135 143 151 160 170 185 200 214 227 237
246 232 212 195 177 146 149 152 150 146 140 138 139 137 132 129 128 127 123 113 103 118 123 123 120 122 121 125 118 119 124 129 135 143 151 157 162 172 186 198 214 227 234 243
249 192 161 138 122 106 99 112 122 124 122 118 118 121 123 124 118 103 94 119 131 127 120 119 121 126 128 120 114 118 122 128 136 145 155 163 172 187 205 215 226 239 243 245
63 105 110 111 110 103 91 93 102 112 115 118 122 125 123 122 122 124 117 120 125 121 115 117 125 125 118 109 114 118 125 132 141 152 163 172 185 199 215 230 239 244 248 254
72 85 92 95 98 98 94 90 91 96 98 97 97 103 113 112 95 82 107 119 117 110 106 117 118 115 107 105 112 117 123 130 141 153 167 181 196 212 228 240 249 254 257 259
74 83 90 95 95 97 100 101 98 96 94 91 84 78 76 87 105 109 106 109 111 104 103 106 104 100 96 102 107 112 120 138 157 168 179 194 216 232 242 249 254 259 262 262
74 79 80 81 91 100 104 104 104 103 104 100 90 84 85 89 95 98 99 98 97 97 94 91 92 91 91 97 103 109 117 120 82 109 192 230 246 255 260 262 262 263 264 265
74 78 83 82 79 81 89 96 100 100 101 105 103 95 92 93 93 93 93 92 91 89 88 87 87 88 91 93 95 98 103 112 175 233 244 253 259 262 264 264 267 268 270 270
Height
1389 1385 1385 1386 1387 1389 1390 1387 1392 1388 1388 1382 1381 1380 1380 1381 1383 1386 1389 1392 1394 1398 1401 1404 1407 1410 1413 1416 1418 1421 1424 1427 1430 1434 1437 1441 1445 1448 1452 1455 1458 1461 1464 1466
1388 1382 1381 1381 1379 1380 1380 1380 1381 1381 1378 1373 1376 1378 1379 1380 1382 1383 1386 1388 1391 1394 1398 1401 1404 1407 1409 1412 1415 1418 1420 1423 1427 1430 1433 1437 1440 1444 1447 1450 1453 1456 1459 1461
1389 1383 1380 1376 1367 1369 1370 1368 1369 1369 1363 1369 1372 1373 1373 1375 1378 1380 1382 1385 1388 1391 1394 1397 1400 1403 1406 1409 1411 1414 1417 1420 1423 1426 1429 1433 1436 1440 1443 1445 1448 1451 1454 1456
1391 1385 1380 1362 1355 1358 1360 1358 1359 1358 1358 1362 1364 1365 1367 1370 1372 1375 1378 1380 1383 1387 1390 1393 1396 1399 1402 1405 1408 1410 1413 1416 1419 1422 1426 1429 1432 1435 1438 1441 1444 1447 1449 1451
1387 1381 1370 1359 1353 1352 1355 1351 1350 1352 1354 1357 1360 1362 1361 1363 1366 1369 1372 1376 1379 1382 1385 1389 1392 1395 1398 1401 1403 1406 1409 1412 1415 1419 1422 1425 1428 1431 1434 1437 1440 1442 1445 1446
1382 1377 1367 1349 1346 1344 1351 1350 1342 1346 1348 1353 1358 1363 1352 1354 1360 1363 1366 1369 1373 1376 1380 1383 1387 1390 1393 1396 1399 1402 1405 1409 1412 1415 1418 1421 1424 1427 1430 1433 1436 1438 1440 1442
1377 1373 1359 1345 1342 1343 1353 1342 1335 1337 1340 1345 1347 1344 1344 1350 1353 1355 1359 1363 1366 1370 1373 1377 1382 1385 1388 1392 1395 1399 1402 1406 1409 1412 1415 1418 1421 1424 1427 1429 1431 1433 1435 1437
1369 1368 1356 1340 1340 1341 1337 1333 1331 1331 1332 1335 1335 1336 1340 1343 1345 1348 1352 1356 1360 1363 1367 1372 1376 1380 1384 1388 1392 1395 1399 1402 1406 1409 1412 1415 1417 1420 1423 1425 1427 1429 1430 1432
1354 1347 1338 1335 1335 1332 1332 1331 1329 1328 1329 1329 1330 1331 1333 1335 1338 1341 1345 1350 1354 1358 1362 1367 1372 1376 1380 1384 1388 1392 1396 1399 1402 1406 1409 1411 1414 1416 1419 1421 1423 1424 1426 1427
1349 1341 1336 1332 1331 1329 1329 1328 1327 1326 1326 1326 1326 1325 1327 1329 1332 1335 1339 1344 1348 1353 1357 1362 1367 1372 1376 1380 1384 1388 1392 1396 1399 1402 1405 1408 1411 1413 1415 1417 1418 1420 1422 1423
1343 1337 1333 1327 1326 1326 1325 1325 1324 1323 1322 1322 1321 1321 1322 1324 1326 1330 1334 1339 1343 1348 1353 1358 1363 1368 1373 1377 1381 1385 1389 1393 1396 1399 1402 1405 1407 1410 1412 1413 1415 1417 1418 1419
1335 1331 1330 1324 1322 1323 1322 1320 1320 1319 1317 1317 1318 1317 1318 1320 1323 1326 1330 1335 1340 1345 1349 1354 1359 1364 1369 1374 1378 1382 1385 1389 1392 1396 1399 1401 1404 1406 1408 1411 1412 1414 1415 1416
1328 1326 1325 1321 1319 1318 1317 1316 1316 1316 1315 1314 1314 1314 1315 1317 1320 1324 1328 1332 1337 1342 1346 1351 1357 1362 1367 1371 1376 1379 1383 1386 1389 1393 1396 1398 1401 1403 1405 1407 1409 1410 1411 1412
1321 1321 1318 1315 1313 1312 1312 1311 1311 1311 1311 1311 1311 1312 1313 1316 1319 1322 1326 1330 1335 1340 1345 1350 1354 1359 1364 1369 1373 1377 1380 1384 1387 1390 1393 1396 1398 1400 1402 1403 1405 1406 1408 1408
1312 1313 1311 1308 1308 1307 1307 1307 1307 1307 1307 1308 1309 1310 1312 1314 1317 1321 1325 1330 1334 1339 1344 1348 1353 1358 1362 1367 1371 1375 1378 1381 1385 1388 1390 1393 1395 1397 1399 1400 1402 1402 1403 1404
1305 1305 1305 1304 1302 1302 1303 1303 1303 1302 1304 1305 1307 1308 1311 1313 1317 1320 1325 1329 1333 1337 1342 1347 1351 1356 1361 1365 1369 1373 1376 1380 1382 1385 1388 1390 1392 1394 1395 1396 1397 1398 1399 1400
1301 1298 1298 1297 1296 1296 1297 1298 1299 1299 1301 1303 1305 1307 1309 1312 1316 1320 1325 1329 1334 1338 1342 1347 1351 1355 1360 1364 1367 1371 1374 1377 1380 1383 1385 1387 1389 1390 1391 1393 1394 1394 1395 1396
1293 1292 1292 1292 1292 1292 1292 1294 1295 1296 1298 1300 1303 1305 1308 1311 1314 1319 1324 1329 1333 1338 1342 1347 1351 1355 1359 1363 1366 1369 1372 1375 1377 1380 1382 1384 1385 1387 1388 1389 1390 1390 1391 1391
1284 1285 1285 1286 1287 1288 1288 1290 1291 1294 1296 1298 1301 1304 1307 1311 1315 1319 1324 1328 1332 1336 1341 1346 1350 1354 1358 1361 1365 1367 1370 1373 1375 1377 1379 1381 1382 1383 1384 1385 1386 1386 1386 1387
1277 1278 1279 1280 1282 1283 1284 1286 1289 1291 1293 1296 1299 1302 1306 1310 1314 1319 1323 1328 1332 1336 1340 1345 1349 1353 1357 1360 1363 1366 1368 1370 1372 1374 1376 1377 1378 1379 1380 1381 1381 1382 1382 1382
1271 1272 1274 1275 1277 1279 1281 1283 1286 1288 1290 1294 1297 1300 1305 1309 1315 1319 1323 1327 1333 1337 1341 1345 1348 1352 1355 1358 1361 1364 1366 1368 1370 1371 1373 1374 1374 1375 1376 1376 1377 1377 1377 1377
1267 1268 1270 1272 1274 1276 1279 1281 1284 1286 1289 1292 1296 1300 1304 1309 1314 1319 1324 1327 1331 1336 1340 1344 1347 1351 1353 1356 1359 1361 1363 1365 1367 1368 1369 1370 1370 1371 1371 1372 1372 1372 1372 1372
1265 1266 1268 1271 1273 1275 1278 1281 1283 1286 1288 1292 1296 1300 1305 1309 1314 1318 1322 1328 1332 1336 1340 1344 1347 1349 1352 1354 1357 1359 1361 1362 1364 1364 1365 1366 1366 1366 1367 1367 1367 1367 1366 1366
1265 1266 1268 1271 1273 1275 1277 1280 1284 1287 1290 1294 1299 1303 1307 1311 1315 1320 1323 1328 1332 1336 1340 1343 1345 1348 1350 1353 1355 1357 1358 1359 1360 1361 1361 1361 1362 1362 1362 1362 1361 1361 1361 1360
1267 1268 1270 1272 1274 1277 1280 1282 1286 1289 1293 1297 1301 1306 1310 1313 1316 1320 1325 1329 1332 1336 1339 1342 1344 1347 1349 1351 1352 1354 1355 1356 1356 1357 1357 1357 1357 1357 1357 1356 1356 1355 1354 1354
1271 1272 1274 1276 1278 1280 1283 1285 1288 1291 1295 1298 1303 1308 1312 1315 1319 1322 1326 1329 1332 1336 1338 1341 1343 1346 1347 1349 1350 1351 1352 1352 1353 1353 1353 1352 1352 1352 1351 1350 1350 1349 1348 1347
1276 1277 1278 1280 1282 1285 1287 1289 1291 1294 1298 1301 1305 1309 1314 1317 1321 1324 1327 1330 1333 1336 1338 1340 1342 1344 1345 1346 1347 1348 1348 1349 1349 1349 1348 1348 1347 1346 1345 1344 1343 1342 1341 1340